NAVSTAR 43 (USA 132) 1 24876U 97035A 22146.42480226 .00000093 00000-0 00000-0 0 9996 2 24876 55.5076 156.5326 0057497 51.1520 309.3994 2.00563363182210 NAVSTAR 46 (USA 145) 1 25933U 99055A 22145.99100774 -.00000103 00000-0 00000-0 0 9996 2 25933 52.4008 359.6107 0144101 130.4134 205.1420 2.00559390165820 NAVSTAR 47 (USA 150) 1 26360U 00025A 22145.60047227 -.00000059 00000-0 00000-0 0 9991 2 26360 54.0409 79.8097 0047931 184.0278 28.9296 2.00574155161514 NAVSTAR 48 (USA 151) 1 26407U 00040A 22145.55974882 -.00000072 00000-0 00000-0 0 9995 2 26407 55.4803 274.1671 0167721 286.4992 95.5535 2.00562912160194 NAVSTAR 49 (USA 154) 1 26605U 00071A 22146.33819852 .00000090 00000-0 00000-0 0 9990 2 26605 55.0911 153.5381 0135942 254.1940 261.9994 2.00560959157770 NAVSTAR 50 (USA 156) 1 26690U 01004A 22143.96059933 -.00000026 00000-0 00000-0 0 9993 2 26690 53.9427 87.5531 0003420 309.8676 209.1173 1.91595097155080 NAVSTAR 51 (USA 166) 1 27663U 03005A 22146.33563404 -.00000073 00000-0 00000-0 0 9996 2 27663 55.5274 273.9392 0125872 41.0298 323.6084 2.00565878141573 NAVSTAR 52 (USA 168) 1 27704U 03010A 22145.82827116 -.00000111 00000-0 00000-0 0 9997 2 27704 55.0161 24.2214 0245092 305.5073 270.3586 2.00554927140358 NAVSTAR 53 (USA 175) 1 28129U 03058A 22146.10868095 -.00000058 00000-0 00000-0 0 9994 2 28129 53.8562 82.3908 0071540 314.9158 44.4775 2.00579363135040 NAVSTAR 54 (USA 177) 1 28190U 04009A 22146.11021509 -.00000081 00000-0 00000-0 0 9997 2 28190 56.0178 334.9226 0090402 119.3530 238.7374 2.00560854133196 NAVSTAR 55 (USA 178) 1 28361U 04023A 22145.12215273 .00000086 00000-0 00000+0 0 9999 2 28361 54.1675 146.8307 0144585 258.8348 279.3289 2.00561266131298 NAVSTAR 56 (USA 180) 1 28474U 04045A 22145.60596208 -.00000111 00000-0 00000-0 0 9992 2 28474 55.3434 24.3595 0206637 278.8081 344.6639 2.00564581128677 NAVSTAR 57 (USA 183) 1 28874U 05038A 22146.07132830 -.00000080 00000-0 00000-0 0 9993 2 28874 56.0849 332.3579 0137176 274.4306 76.3093 2.00577793122087 NAVSTAR 58 (USA 190) 1 29486U 06042A 22146.22107812 .00000026 00000-0 00000-0 0 9997 2 29486 54.7163 210.1575 0103288 21.2324 355.8650 2.00555328114653 NAVSTAR 59 (USA 192) 1 29601U 06052A 22145.63871433 -.00000072 00000-0 00000-0 0 9990 2 29601 55.5339 272.9035 0084141 73.3663 287.5362 2.00578679113657 NAVSTAR 60 (USA 196) 1 32260U 07047A 22145.95655804 .00000076 00000-0 00000-0 0 9990 2 32260 53.3089 141.4757 0138605 62.2605 299.1512 2.00549416107060 NAVSTAR 61 (USA 199) 1 32384U 07062A 22146.02606063 -.00000079 00000-0 00000-0 0 9990 2 32384 56.2031 333.1177 0020055 134.6550 47.1988 2.00560778105761 NAVSTAR 62 (USA 201) 1 32711U 08012A 22146.36889540 .00000030 00000-0 00000-0 0 9996 2 32711 54.4759 209.0922 0162963 230.6900 127.9262 2.00564664104019 NAVSTAR 64 (USA 206) 1 35752U 09043A 22145.57013410 -.00000042 00000-0 00000-0 0 9990 2 35752 55.0548 86.4484 0058039 57.6730 102.7882 2.00557438 93608 NAVSTAR 65 (USA 213) 1 36585U 10022A 22146.18251716 -.00000070 00000-0 00000-0 0 9996 2 36585 54.8160 268.4170 0103195 56.8568 302.1470 2.00564132 87845 NAVSTAR 66 (USA 232) 1 37753U 11036A 22146.31888723 -.00000110 00000-0 00000-0 0 9994 2 37753 56.5961 29.5649 0117323 51.4938 131.0155 2.00565301 79533 NAVSTAR 67 (USA 239) 1 38833U 12053A 22146.05038733 .00000035 00000-0 00000-0 0 9998 2 38833 53.5305 204.2677 0123085 46.0065 315.0767 2.00561551 69690 NAVSTAR 68 (USA 242) 1 39166U 13023A 22146.40769240 -.00000081 00000-0 00000-0 0 9991 2 39166 55.7129 328.7257 0104025 38.0755 322.6631 2.00566069 66144 NAVSTAR 69 (USA 248) 1 39533U 14008A 22145.40845707 .00000015 00000-0 00000-0 0 9991 2 39533 53.6250 209.7979 0059443 207.9421 151.8045 2.00552326 59923 NAVSTAR 70 (USA 251) 1 39741U 14026A 22146.18768491 -.00000110 00000-0 00000-0 0 9999 2 39741 56.5583 29.0957 0027297 307.7624 52.0294 2.00557664 58792 NAVSTAR 71 (USA 256) 1 40105U 14045A 22146.27280690 .00000085 00000-0 00000-0 0 9996 2 40105 54.6876 147.6891 0018679 109.4706 250.7546 2.00576516 56330 NAVSTAR 72 (USA 258) 1 40294U 14068A 22146.15061420 -.00000041 00000-0 00000-0 0 9998 2 40294 55.7997 88.8157 0040107 53.1332 307.2003 2.00569909 55464 NAVSTAR 73 (USA 260) 1 40534U 15013A 22146.28648732 -.00000069 00000-0 00000-0 0 9997 2 40534 53.7172 265.6138 0068566 20.6466 339.6158 2.00553816 52089 NAVSTAR 74 (USA 262) 1 40730U 15033A 22146.45093257 -.00000082 00000-0 00000-0 0 9997 2 40730 55.2120 327.5637 0074207 7.9395 352.1820 2.00553013 50259 NAVSTAR 75 (USA 265) 1 41019U 15062A 22145.99777815 -.00000040 00000-0 00000-0 0 9991 2 41019 55.7884 88.6641 0077547 218.4899 140.9245 2.00562801 48087 NAVSTAR 76 (USA 266) 1 41328U 16007A 22146.09030762 .00000087 00000-0 00000-0 0 9999 2 41328 54.9057 148.3629 0061627 230.5011 128.9768 2.00571704 46093